Location: Recife
(8.0585°S, 34.8848°W)
Time: 06:52:14
(UTC-03:00)

Vanguard 1 - Pass Details

Date: 15 April 2026
Orbit: 654 x 3817 km, 34.2° (Epoch: 13 May)

Event Time Altitude Azimuth Distance (km) Brightness Sun altitude
Rises 06:54:41 0° 322° (NW) 4,693 13.3 21.7°
Reaches altitude 10° 06:58:52 10° 332° (NNW) 3,214 12.6 22.7°
Maximum altitude 07:04:57 28° 30° (NNE) 1,605 12.1 24.1°
Drops below altitude 10° 07:09:16 10° 90° (E) 2,227 13.5 25.2°
Sets 07:11:36 0° 102° (ESE) 3,029 13.6 25.7°
